TimeMST,TemperatureF,Dew PointF,Humidity,Sea Level PressureIn,VisibilityMPH,Wind Direction,Wind SpeedMPH,Gust SpeedMPH,PrecipitationIn,Events,Conditions,WindDirDegrees,DateUTC
12:15 AM,10.4,-0.4,62,30.05,10.0,SSE,11.5,-,N/A,,Clear,160,2013-02-19 07:15:00
12:35 AM,10.4,1.4,67,30.03,10.0,SE,13.8,-,N/A,,Clear,140,2013-02-19 07:35:00
12:55 AM,8.6,1.4,73,30.04,10.0,SE,10.4,-,N/A,,Clear,140,2013-02-19 07:55:00
1:55 AM,8.6,-0.4,67,30.04,10.0,SE,13.8,-,N/A,,Clear,130,2013-02-19 08:55:00
2:35 AM,8.6,1.4,73,30.03,10.0,SE,16.1,-,N/A,,Clear,140,2013-02-19 09:35:00
2:55 AM,8.6,1.4,73,30.02,10.0,SE,13.8,-,N/A,,Clear,140,2013-02-19 09:55:00
3:35 AM,6.8,-0.4,72,30.01,10.0,SE,15.0,-,N/A,,Clear,140,2013-02-19 10:35:00
3:55 AM,6.8,-0.4,72,30.00,10.0,SSE,18.4,-,N/A,,Clear,150,2013-02-19 10:55:00
4:55 AM,6.8,-2.2,67,29.99,10.0,SE,16.1,-,N/A,,Clear,140,2013-02-19 11:55:00
5:15 AM,6.8,-0.4,72,29.98,10.0,SE,18.4,-,N/A,,Clear,140,2013-02-19 12:15:00
5:35 AM,6.8,-2.2,67,29.98,10.0,SSE,10.4,-,N/A,,Clear,150,2013-02-19 12:35:00
6:15 AM,6.8,-2.2,67,29.97,10.0,SSE,19.6,-,N/A,,Clear,160,2013-02-19 13:15:00
6:35 AM,6.8,-2.2,67,29.96,10.0,SSE,12.7,-,N/A,,Clear,160,2013-02-19 13:35:00
6:55 AM,6.8,-2.2,67,29.97,10.0,SSE,12.7,-,N/A,,Clear,160,2013-02-19 13:55:00
7:15 AM,6.8,-2.2,67,29.96,10.0,SSE,16.1,-,N/A,,Clear,150,2013-02-19 14:15:00
7:55 AM,8.6,1.4,73,29.96,10.0,SSE,15.0,-,N/A,,Clear,160,2013-02-19 14:55:00
8:35 AM,10.4,-0.4,62,29.95,10.0,SSE,15.0,-,N/A,,Clear,150,2013-02-19 15:35:00
9:15 AM,12.2,1.4,62,29.94,10.0,SSE,12.7,-,N/A,,Clear,160,2013-02-19 16:15:00
9:35 AM,10.4,-0.4,62,29.94,10.0,South,12.7,-,N/A,,Clear,170,2013-02-19 16:35:00
9:55 AM,15.8,5.0,62,29.94,10.0,SSE,12.7,-,N/A,,Clear,150,2013-02-19 16:55:00
10:15 AM,15.8,1.4,53,29.93,10.0,SSE,12.7,-,N/A,,Clear,160,2013-02-19 17:15:00
10:35 AM,17.6,3.2,53,29.92,10.0,SSE,11.5,-,N/A,,Clear,160,2013-02-19 17:35:00
11:35 AM,23.0,6.8,50,29.89,10.0,SSE,11.5,-,N/A,,Clear,160,2013-02-19 18:35:00
12:15 PM,24.8,8.6,50,29.86,10.0,SSE,12.7,-,N/A,,Clear,150,2013-02-19 19:15:00
12:35 PM,26.6,8.6,47,29.85,10.0,SSE,12.7,-,N/A,,Clear,150,2013-02-19 19:35:00
12:55 PM,26.6,8.6,47,29.84,10.0,South,9.2,-,N/A,,Clear,180,2013-02-19 19:55:00
1:15 PM,26.6,8.6,47,29.82,10.0,South,10.4,-,N/A,,Clear,170,2013-02-19 20:15:00
1:35 PM,28.4,8.6,43,29.81,10.0,South,9.2,-,N/A,,Clear,180,2013-02-19 20:35:00
1:55 PM,28.4,8.6,43,29.79,10.0,South,5.8,-,N/A,,Clear,170,2013-02-19 20:55:00
2:15 PM,28.4,10.4,47,29.78,10.0,South,6.9,-,N/A,,Clear,180,2013-02-19 21:15:00
2:35 PM,28.4,12.2,51,29.78,10.0,SSW,3.5,-,N/A,,Clear,200,2013-02-19 21:35:00
2:55 PM,30.2,10.4,44,29.78,10.0,SSE,3.5,-,N/A,,Clear,150,2013-02-19 21:55:00
3:15 PM,32.0,8.6,38,29.77,10.0,South,6.9,-,N/A,,Clear,170,2013-02-19 22:15:00
3:35 PM,30.2,12.2,47,29.77,10.0,SSE,5.8,-,N/A,,Clear,150,2013-02-19 22:35:00
3:55 PM,32.0,10.4,41,29.76,10.0,Calm,Calm,-,N/A,,Clear,0,2013-02-19 22:55:00
4:15 PM,28.4,10.4,47,29.75,10.0,East,4.6,-,N/A,,Clear,80,2013-02-19 23:15:00
5:35 PM,24.8,6.8,46,29.74,10.0,ESE,8.1,-,N/A,,Clear,120,2013-02-20 00:35:00
5:55 PM,26.6,8.6,47,29.74,10.0,SE,9.2,-,N/A,,Clear,140,2013-02-20 00:55:00
6:35 PM,26.6,6.8,43,29.74,10.0,SE,5.8,-,N/A,,Clear,130,2013-02-20 01:35:00
6:55 PM,26.6,6.8,43,29.74,10.0,SE,10.4,-,N/A,,Clear,140,2013-02-20 01:55:00
7:15 PM,23.0,6.8,50,29.73,10.0,SE,8.1,-,N/A,,Clear,140,2013-02-20 02:15:00
7:35 PM,21.2,6.8,54,29.73,10.0,East,8.1,-,N/A,,Clear,100,2013-02-20 02:35:00
7:55 PM,24.8,6.8,46,29.72,10.0,SSE,4.6,-,N/A,,Clear,150,2013-02-20 02:55:00
8:15 PM,21.2,6.8,54,29.72,10.0,South,9.2,-,N/A,,Clear,170,2013-02-20 03:15:00
8:55 PM,23.0,6.8,50,29.72,10.0,SE,9.2,-,N/A,,Clear,140,2013-02-20 03:55:00
9:15 PM,26.6,5.0,40,29.72,10.0,SSE,9.2,-,N/A,,Clear,150,2013-02-20 04:15:00
9:35 PM,24.8,6.8,46,29.71,10.0,SSE,11.5,-,N/A,,Clear,150,2013-02-20 04:35:00
9:55 PM,23.0,5.0,46,29.71,10.0,South,5.8,-,N/A,,Clear,190,2013-02-20 04:55:00
10:15 PM,19.4,6.8,58,29.70,10.0,SSE,12.7,-,N/A,,Clear,150,2013-02-20 05:15:00
10:35 PM,21.2,6.8,54,29.70,10.0,SSE,13.8,-,N/A,,Clear,150,2013-02-20 05:35:00
10:55 PM,21.2,6.8,54,29.69,10.0,SE,15.0,-,N/A,,Clear,140,2013-02-20 05:55:00
11:15 PM,21.2,6.8,54,29.68,10.0,SSE,19.6,-,N/A,,Clear,150,2013-02-20 06:15:00
11:35 PM,19.4,6.8,58,29.68,10.0,SE,8.1,-,N/A,,Clear,140,2013-02-20 06:35:00
11:55 PM,19.4,5.0,54,29.67,10.0,SE,9.2,-,N/A,,Clear,140,2013-02-20 06:55:00